Theta_e
315 315 318 321 319 320 319 318 319 317 320 319 315 317 314 313 313 312 315 314 314 318 317 315 314 315 316 317 318 319 319 321 322 320 321 322 322 326 327 325 328 333 336 337 337 336 336 336 335 333 331 329 328 326 326 326 326 327 327 328 330 330 331 330 329 330 329 328 326 325 324 323 322 322 322 321 319 316 314 313 311 310 308 307 306 306 306 307 307 307 308 308 308 308 309 308 309
315 316 319 320 321 323 318 316 323 323 323 317 313 316 313 313 314 315 317 316 318 319 318 317 317 318 318 318 318 318 320 323 325 325 324 322 323 326 325 324 329 333 335 337 337 336 336 336 335 333 331 329 328 327 326 326 326 327 327 327 328 330 330 329 328 328 328 328 327 325 324 324 324 324 325 324 322 318 315 313 312 311 309 307 305 305 305 305 306 306 307 307 307 307 307 308 311
316 318 320 321 322 320 321 319 321 326 326 318 315 317 313 313 316 315 315 316 319 318 318 318 318 319 318 318 319 318 319 322 325 326 325 323 324 324 322 324 329 333 334 336 337 336 337 336 336 335 333 331 328 327 326 326 326 327 329 327 326 328 329 329 329 328 327 328 328 325 325 325 325 326 325 325 324 321 316 313 313 312 310 308 305 305 304 304 304 305 305 305 305 305 307 309 312
317 319 320 321 321 319 329 328 324 329 325 318 317 318 316 317 316 313 314 317 317 315 315 318 318 318 318 319 319 318 320 320 322 324 323 324 323 321 321 324 331 334 335 336 336 336 337 336 335 335 334 333 330 328 328 327 327 327 328 325 323 325 327 328 328 328 328 328 328 326 326 326 326 327 325 325 324 322 318 314 312 312 311 309 306 305 304 304 304 304 304 304 304 306 312 314 314
319 321 321 322 323 320 326 324 324 327 319 319 318 316 321 319 316 311 312 315 316 315 315 318 319 318 319 319 319 319 320 319 320 323 323 323 321 321 321 324 331 334 336 336 336 336 337 337 336 336 335 334 331 330 330 329 327 327 326 322 321 322 325 326 327 329 329 328 329 327 327 327 327 328 326 324 324 322 319 315 312 312 312 310 307 305 304 304 304 304 304 304 307 313 317 318 317
319 321 320 321 320 316 321 321 320 321 315 319 318 315 319 314 313 312 311 313 314 316 315 316 318 318 318 319 320 320 320 319 319 321 320 321 321 323 322 324 331 335 336 336 336 336 336 337 336 336 336 335 334 332 332 330 327 327 325 322 320 321 323 324 326 328 329 329 328 328 328 328 328 328 326 324 324 323 320 316 313 311 312 311 309 306 304 304 303 304 304 305 311 317 318 316 315
319 320 320 321 319 315 324 324 319 320 313 311 313 314 313 309 311 311 311 313 315 315 315 316 317 318 319 319 319 319 321 318 318 319 318 320 322 324 323 324 332 334 335 337 337 337 336 336 336 336 335 335 334 334 333 330 328 326 326 323 320 321 321 322 325 327 329 329 328 329 329 328 329 328 326 324 324 323 321 318 314 311 311 311 309 307 305 304 303 304 304 305 310 314 314 312 311
320 320 318 323 324 321 328 324 318 320 313 306 308 311 310 310 311 311 311 313 314 314 315 317 316 317 318 318 318 318 319 317 317 317 317 319 322 325 324 324 331 334 335 336 337 338 337 336 337 336 335 336 335 336 334 331 329 327 326 323 320 321 320 320 324 327 328 328 327 329 329 329 329 328 326 324 324 324 321 319 316 312 311 311 309 308 306 305 304 304 304 306 309 309 308 307 306
319 319 318 325 327 325 328 321 315 315 313 310 309 310 310 312 311 311 311 311 313 314 316 316 315 315 317 317 317 318 317 316 316 316 316 319 322 324 325 326 331 334 335 335 337 337 336 337 337 337 336 337 337 337 335 332 330 328 326 324 320 320 320 320 324 327 328 328 327 328 329 328 329 327 325 324 323 324 322 319 318 314 311 311 310 308 307 305 305 304 304 305 307 307 306 306 306
318 319 316 324 327 323 323 317 316 316 314 312 310 311 312 312 311 311 311 311 313 315 316 315 314 314 316 317 316 317 317 316 315 315 316 318 321 323 325 328 331 334 334 334 336 335 335 336 337 338 337 337 337 337 336 333 331 329 327 324 321 320 320 320 323 326 327 328 327 327 327 328 328 326 324 324 323 323 322 319 319 316 312 311 310 309 307 306 304 304 304 305 305 305 306 306 306
318 317 316 329 331 322 322 319 319 319 315 311 310 312 313 312 312 311 311 312 313 314 315 315 315 315 316 315 315 317 317 317 316 315 315 317 320 322 323 325 328 332 334 334 335 335 335 336 335 336 337 337 338 337 336 335 332 330 327 326 323 321 321 320 321 325 327 327 327 325 324 327 328 325 323 323 323 323 322 320 319 318 314 311 311 310 308 306 304 303 303 304 304 305 305 305 306
317 318 327 337 330 322 323 321 318 321 321 317 313 312 313 312 312 312 312 313 313 313 313 314 315 316 315 313 314 316 316 316 316 315 315 317 318 321 323 321 325 332 334 333 333 334 334 334 333 334 336 337 337 337 337 335 333 330 329 328 325 323 322 320 320 324 326 326 327 325 323 326 326 323 322 322 323 324 322 320 320 319 316 313 311 311 309 307 304 303 303 303 303 304 304 304 305
316 320 336 330 318 320 322 319 318 321 322 317 313 312 313 312 313 313 312 312 312 313 313 313 315 316 315 314 314 315 316 316 316 316 315 317 318 321 324 322 323 330 334 332 333 333 333 335 335 335 336 335 336 337 336 336 334 332 331 329 327 325 323 322 321 323 326 327 327 325 323 324 324 322 321 321 323 325 323 321 320 319 318 315 312 311 311 310 308 306 304 304 304 304 304 304 304
316 318 333 325 312 318 320 318 317 317 318 317 313 311 313 312 313 313 313 313 312 313 314 314 315 315 315 315 315 315 315 316 316 316 315 316 318 320 325 325 323 326 332 334 332 330 330 333 334 334 333 334 336 336 336 336 335 333 332 331 329 327 325 323 322 323 324 326 326 325 323 323 323 321 321 321 322 325 323 321 320 320 319 316 314 313 312 311 311 310 308 308 307 307 306 307 307
317 314 324 325 315 317 318 317 318 319 318 316 314 311 312 312 313 313 313 314 313 313 314 314 315 314 315 315 315 315 314 315 315 315 315 315 317 318 323 326 323 322 324 326 327 328 331 328 326 329 330 331 335 334 335 335 335 334 333 332 331 329 327 325 324 323 324 326 326 324 324 324 323 322 322 321 322 325 324 322 321 321 320 318 316 315 314 314 314 314 313 313 312 312 311 312 312
316 315 325 329 319 317 317 315 318 320 317 312 312 313 312 312 312 313 313 314 314 313 314 314 315 314 314 315 314 315 314 314 314 314 315 314 316 317 323 326 323 324 323 321 324 331 337 331 322 325 327 329 336 336 333 335 335 334 334 333 332 331 329 327 326 325 324 325 325 324 325 325 324 323 322 322 323 325 324 323 321 321 321 319 318 318 318 317 317 317 317 317 316 316 316 316 316
314 321 333 330 320 320 318 316 317 320 319 311 310 313 313 313 312 313 313 313 314 313 314 314 314 314 314 314 314 314 314 314 313 313 313 312 315 315 321 325 323 327 328 324 329 332 334 333 328 328 327 328 336 337 332 333 335 334 334 333 332 332 331 330 328 327 325 324 324 324 325 325 324 324 323 322 323 325 325 324 322 322 322 321 320 320 320 320 320 320 319 319 318 319 318 318 318
318 330 331 324 323 323 319 317 314 317 320 312 310 313 313 314 313 313 313 313 313 313 314 314 314 314 314 314 313 314 314 314 313 313 314 312 314 314 317 320 320 327 329 328 334 335 330 331 334 334 330 327 329 331 330 331 333 333 333 332 332 332 332 332 330 330 328 325 324 324 325 325 324 324 324 323 323 324 325 324 323 322 322 322 321 321 322 321 322 322 321 320 319 319 319 319 319
318 327 327 326 327 318 313 313 310 312 316 312 311 312 312 315 313 313 314 313 313 313 314 313 314 314 314 314 314 314 314 313 313 313 314 313 313 314 315 317 318 323 325 329 336 338 334 332 336 337 333 330 325 328 336 336 333 333 334 333 332 331 331 332 332 332 330 327 326 326 327 326 325 325 325 324 324 325 325 324 323 323 323 323 322 323 323 323 323 323 323 322 321 320 319 319 319
313 321 328 327 320 312 310 312 311 312 313 311 311 311 312 313 313 313 313 312 312 313 314 313 314 314 314 314 314 314 314 314 314 313 313 313 313 313 314 316 317 318 318 323 331 334 335 332 332 334 334 332 326 327 336 335 332 331 331 331 331 331 330 331 332 333 331 329 329 329 329 328 326 325 326 325 325 325 325 325 324 323 323 323 323 323 324 324 324 324 323 323 322 321 320 320 320
311 318 326 317 310 311 312 311 312 312 312 312 311 311 312 312 313 313 312 313 314 313 314 314 314 314 314 314 314 314 315 314 314 313 313 313 314 313 313 314 315 316 315 316 320 324 327 325 322 324 327 328 324 326 331 331 331 331 330 331 331 330 329 330 331 332 332 331 331 331 331 330 327 326 326 326 326 326 326 326 325 324 323 323 324 324 324 324 324 324 324 323 323 322 321 321 321
312 313 313 309 308 313 313 311 312 312 312 312 311 312 313 312 313 312 312 314 316 314 314 314 314 314 314 314 314 314 314 314 314 314 314 314 314 313 313 315 315 315 315 315 315 315 317 316 316 315 317 318 318 326 334 335 334 332 332 330 328 329 330 331 330 331 332 331 332 331 331 332 329 326 326 326 326 325 325 326 326 324 324 324 324 324 324 324 324 324 324 324 324 323 322 321 321
316 313 308 309 310 312 312 311 312 312 312 312 311 313 313 312 313 312 312 313 315 314 314 314 313 314 314 314 314 314 314 314 314 314 314 314 314 313 313 314 315 315 315 315 314 314 314 313 314 314 315 315 315 322 330 335 334 331 331 330 329 329 329 331 331 331 331 330 331 332 331 332 331 328 327 326 325 326 327 327 327 325 325 325 324 324 325 324 324 324 324 324 324 324 323 322 321
317 316 310 310 310 311 312 312 312 312 312 312 312 312 312 313 313 312 312 314 315 314 314 314 314 314 314 314 314 314 314 314 314 314 313 313 313 313 314 314 315 315 314 314 313 313 313 313 313 313 314 314 315 316 320 326 328 331 335 333 331 330 330 331 332 331 332 331 330 330 330 331 332 329 329 327 324 327 329 328 328 327 326 326 325 325 325 325 325 325 325 324 324 324 323 323 322
316 315 311 311 311 312 312 312 312 312 312 312 313 313 312 312 311 310 313 315 314 314 314 314 314 314 314 315 314 314 314 313 313 313 313 313 313 313 313 314 314 314 314 314 313 313 313 313 313 313 313 313 314 314 315 319 322 330 337 333 331 333 332 330 330 330 330 329 327 329 330 331 331 330 330 329 326 328 330 330 329 328 327 327 326 326 326 325 325 325 325 324 324 323 323 323 322
313 313 312 312 312 312 312 312 312 312 312 312 313 312 312 311 311 312 314 315 314 314 314 314 314 314 315 314 314 314 313 314 313 313 313 312 313 313 313 314 314 314 314 313 313 313 314 313 314 313 313 313 313 313 315 317 318 324 330 331 332 331 329 329 329 329 328 327 329 331 331 330 331 330 329 329 328 328 329 330 329 328 328 328 327 327 326 325 324 325 324 323 323 323 323 322 321
312 312 312 313 313 313 313 312 312 312 312 312 314 313 311 311 312 315 316 315 315 314 314 314 315 314 315 314 314 314 313 313 313 312 313 312 313 312 313 313 313 314 313 313 313 313 314 314 314 314 313 313 313 313 313 315 317 321 324 326 327 324 326 330 332 331 329 329 331 331 330 330 330 331 329 328 329 328 328 330 329 328 328 327 327 327 326 325 325 323 323 323 322 322 323 321 319
312 313 314 313 313 314 313 313 312 313 313 312 313 312 311 311 313 315 314 315 315 314 315 314 314 315 314 314 314 314 314 313 313 313 313 313 312 312 312 312 313 313 313 313 313 313 314 313 314 314 313 314 313 313 313 313 317 321 323 325 326 326 328 331 331 331 332 330 329 328 329 329 329 330 330 329 329 328 328 329 328 328 328 327 327 326 325 325 324 323 322 322 322 322 322 319 315
313 314 316 317 318 316 312 311 312 312 314 312 312 314 315 314 313 315 313 313 315 314 315 315 314 314 314 314 314 314 314 314 313 313 313 313 312 312 312 312 312 312 313 313 313 313 314 314 314 314 314 313 313 313 314 313 315 322 328 329 329 330 328 328 328 329 331 330 327 327 327 325 327 329 330 329 329 329 329 328 328 329 328 327 326 325 324 325 324 323 322 321 321 321 319 315 311
315 313 315 321 323 320 311 309 311 311 313 312 312 317 324 321 313 313 314 313 314 314 314 315 314 314 314 314 314 314 314 314 314 313 313 313 312 312 312 312 312 312 313 313 313 313 313 314 313 314 314 313 313 313 313 316 316 321 329 330 329 328 326 326 329 329 328 327 326 327 325 322 326 330 329 329 329 329 329 328 328 327 325 324 324 323 324 324 323 322 322 321 320 319 316 311 307
318 311 317 324 319 320 315 308 311 312 312 311 312 317 323 323 314 312 313 313 313 314 314 314 314 314 314 314 313 314 314 313 314 313 313 313 312 312 311 311 312 312 313 312 313 313 313 314 313 314 313 313 314 312 315 321 320 318 323 327 325 325 327 328 329 327 325 326 327 327 323 321 325 329 328 328 328 327 327 325 325 324 323 323 323 321 323 323 323 323 321 319 318 315 311 307 305
321 312 321 324 316 325 323 308 308 313 311 309 313 318 320 319 314 312 313 313 312 313 314 314 314 314 313 314 314 314 314 313 313 313 313 312 312 312 311 311 312 312 312 312 313 313 313 314 313 313 313 313 313 313 317 321 321 318 321 325 326 326 328 329 328 326 326 328 328 326 324 323 325 327 326 326 325 325 324 323 322 322 322 323 322 321 321 323 322 321 318 315 313 311 307 305 304
324 316 321 323 318 325 322 310 306 309 310 310 312 317 321 318 313 311 312 312 312 312 313 314 314 314 314 314 314 314 314 313 313 313 313 312 312 312 311 311 311 312 312 312 313 313 314 313 313 313 313 313 313 316 321 321 321 324 323 323 326 327 327 329 329 328 328 328 327 325 326 326 325 324 323 323 322 321 321 321 321 321 321 321 322 321 321 322 320 318 316 311 308 307 305 304 304
322 317 319 321 320 319 319 318 309 306 310 312 312 313 317 317 311 311 312 311 311 312 313 314 314 314 314 314 314 314 314 314 314 314 313 313 312 311 311 311 311 312 312 312 313 312 313 313 313 313 313 315 315 317 324 323 323 326 324 321 324 326 327 328 328 326 326 326 326 325 325 326 324 323 322 321 319 318 319 321 321 320 321 321 321 321 320 318 315 313 313 308 304 304 304 303 302
322 322 323 320 318 316 319 322 312 308 312 314 314 314 314 314 311 311 312 311 311 312 313 313 313 314 314 314 314 314 314 315 315 314 313 312 312 311 311 311 311 312 311 312 312 312 313 312 314 314 313 317 317 317 323 324 323 325 323 323 326 326 327 326 325 325 324 324 325 325 324 325 324 323 322 319 318 317 318 320 320 319 320 320 320 319 317 313 310 309 309 305 303 303 302 301 301
324 329 333 327 321 319 321 323 313 307 312 315 315 314 314 313 312 311 312 311 310 311 312 312 312 313 313 314 314 314 314 315 315 314 313 312 312 311 311 311 311 312 311 312 312 312 313 311 314 315 313 317 317 319 325 326 325 325 324 325 326 325 325 325 324 324 324 323 323 323 323 323 323 323 321 318 318 319 319 320 319 318 319 318 316 315 312 308 306 304 303 302 301 301 301 300 300
323 327 331 326 321 322 322 321 312 305 312 319 316 313 314 313 312 311 310 310 308 309 310 311 312 313 314 314 314 315 314 315 314 313 313 312 312 311 311 311 311 311 311 312 312 312 312 312 314 315 314 317 319 320 323 324 323 323 324 325 324 325 325 324 324 323 322 322 322 322 321 322 322 321 319 318 319 319 319 318 318 318 317 315 312 310 306 303 301 301 300 300 299 299 299 299 299
325 324 323 322 321 323 320 316 313 308 312 320 318 315 314 313 313 310 309 308 308 309 309 310 313 313 315 315 314 315 314 314 314 313 313 312 312 311 311 311 310 311 311 311 312 311 312 312 312 314 315 318 322 323 322 323 322 322 323 325 324 325 323 322 323 322 322 322 321 321 321 321 320 318 318 319 318 317 317 317 317 316 314 310 307 304 302 300 299 299 298 299 298 298 298 298 298
327 322 319 321 321 320 317 314 314 311 311 319 322 317 314 313 313 311 309 309 310 311 311 312 313 313 314 315 314 315 314 314 314 313 313 312 312 311 311 311 310 310 311 311 311 311 311 312 311 314 318 319 322 323 323 323 323 322 323 325 324 323 322 322 322 321 321 322 321 321 320 319 318 317 318 318 316 315 315 314 313 310 307 305 303 301 300 299 298 298 298 298 298 298 298 297 297
324 321 321 323 320 319 318 316 315 313 311 317 321 316 314 314 313 313 311 310 312 312 312 312 312 313 315 315 314 314 313 314 314 313 313 312 311 311 311 311 310 310 311 310 311 311 311 311 311 315 319 319 319 319 321 323 323 323 324 323 323 322 321 322 322 321 320 320 320 320 318 317 316 316 316 316 315 315 313 309 305 303 301 301 300 299 299 298 298 298 297 297 297 297 297 297 297
322 321 322 325 324 320 318 317 318 316 313 314 318 319 320 320 318 319 315 310 311 312 312 313 313 314 315 314 313 313 313 313 313 313 313 312 311 311 311 311 310 310 311 311 311 311 311 310 312 316 318 317 317 316 319 322 322 322 322 321 322 322 321 321 320 320 319 318 318 318 317 316 315 315 315 315 314 312 308 303 300 299 299 299 298 299 299 298 298 298 297 297 297 297 296 296 296
323 320 321 322 323 320 317 318 319 321 322 316 314 319 328 329 326 326 326 322 319 313 309 312 315 315 314 314 315 314 314 313 312 312 312 312 311 311 310 310 310 310 310 311 310 311 311 310 312 316 317 317 318 318 320 320 319 320 321 320 321 322 321 320 319 318 318 317 317 317 316 315 314 314 314 312 309 305 302 300 299 299 299 299 298 299 299 299 299 298 298 297 296 296 296 295 295
321 317 317 316 315 317 317 317 318 323 325 314 312 320 323 324 322 322 328 331 328 318 312 311 314 315 314 315 316 316 315 314 313 312 311 311 310 310 310 310 310 310 310 310 310 310 311 311 312 315 316 318 321 320 319 318 318 320 321 320 321 321 320 319 318 316 316 318 318 316 315 314 313 312 309 305 302 300 299 299 299 299 300 300 299 299 300 300 299 299 299 297 296 296 296 295 295
322 316 316 317 316 318 318 317 318 322 322 315 316 324 321 320 320 322 323 324 323 322 320 316 312 313 314 315 316 316 316 315 314 313 311 311 310 310 310 310 310 310 310 310 310 310 310 311 313 314 315 318 320 319 317 317 318 320 321 321 320 319 319 318 316 315 316 317 316 314 313 312 310 306 303 301 299 299 299 298 298 299 300 301 300 300 300 300 300 299 299 297 296 296 296 295 295
319 311 313 317 318 321 321 322 323 321 320 318 318 320 321 324 324 322 319 319 322 324 324 318 312 313 314 315 316 316 315 315 313 313 312 311 311 310 310 310 310 310 310 310 310 310 310 311 313 315 315 316 318 318 316 317 319 320 320 320 319 319 318 316 315 315 315 315 313 312 310 307 304 301 299 299 298 298 298 298 299 299 300 300 300 300 301 300 300 299 298 297 296 296 296 295 294
312 306 311 315 316 320 321 325 327 324 323 321 320 320 319 322 324 323 319 320 325 324 320 315 311 314 315 314 315 315 315 314 313 312 311 311 311 310 310 309 309 310 309 310 309 309 311 311 314 317 316 315 316 317 317 318 319 319 319 318 318 318 317 316 315 314 314 313 311 309 305 302 300 299 298 298 298 298 298 298 298 299 299 300 300 300 300 300 299 298 298 297 297 297 296 295 294
308 313 319 319 320 321 322 323 322 323 326 322 319 320 318 318 324 326 321 322 324 322 321 319 313 314 315 315 315 315 315 315 313 313 311 311 310 308 309 309 309 309 309 309 309 309 311 312 314 317 316 314 316 318 318 319 319 319 318 318 318 317 316 316 314 313 313 312 308 305 302 300 299 298 298 298 298 298 298 298 298 299 299 300 300 300 299 299 299 298 298 298 298 297 296 295 294
312 326 326 320 323 322 321 323 321 323 326 319 314 315 316 318 323 326 322 321 321 319 324 327 318 314 315 315 315 315 315 315 314 314 312 311 309 308 308 308 309 309 309 309 309 309 310 311 313 316 315 315 317 319 318 319 319 318 318 318 317 316 315 314 313 313 313 310 305 302 300 299 298 298 298 298 298 298 298 298 299 299 300 300 300 299 299 299 299 298 298 297 297 296 296 295 294
318 326 322 319 322 320 320 323 322 324 321 313 311 314 316 317 319 320 319 321 321 314 314 319 316 314 315 315 314 314 315 315 314 314 313 311 310 309 308 308 308 309 309 309 309 309 310 311 312 315 316 315 316 317 318 318 318 318 318 317 316 315 314 312 312 313 313 308 304 301 300 299 299 298 298 298 298 298 298 299 299 300 300 299 299 299 299 299 298 297 297 296 296 295 295 294 293
319 322 321 321 321 322 327 325 318 318 317 311 309 314 318 319 319 319 317 317 317 312 310 313 314 314 315 314 313 313 314 314 314 313 312 312 311 309 309 309 309 309 309 309 308 308 310 311 312 315 317 316 315 315 316 317 318 317 317 316 315 313 311 310 312 313 312 307 302 301 300 299 299 298 298 298 297 298 298 298 299 299 299 299 299 299 298 298 297 296 295 295 294 294 293 293 292
317 319 319 321 322 325 332 330 323 320 320 315 310 314 323 325 322 319 313 311 312 312 313 313 312 313 314 313 313 312 312 313 313 313 313 312 311 309 309 309 309 309 309 309 309 308 309 310 313 315 317 316 315 314 315 316 317 316 316 314 313 312 311 311 311 312 311 306 301 300 299 298 298 298 298 297 297 298 298 298 299 298 298 298 298 298 297 297 296 295 294 294 293 293 292 292 291
316 317 317 319 321 322 319 316 318 319 320 320 315 318 323 322 321 316 310 311 311 310 311 311 313 313 312 312 313 312 312 312 312 313 313 312 310 309 309 309 309 309 309 309 309 308 309 309 312 315 315 315 315 315 316 316 316 316 314 313 313 311 311 311 310 310 310 306 301 299 299 298 298 297 297 297 297 298 298 298 298 297 296 297 297 297 296 296 295 294 294 293 292 292 291 291 291
315 316 320 318 314 321 320 312 309 312 316 320 319 320 320 317 319 316 314 316 315 311 310 309 312 313 311 312 314 313 313 312 312 312 312 312 311 310 309 309 309 309 309 309 309 309 309 308 311 313 314 314 315 316 316 316 316 315 314 313 312 311 310 310 309 309 308 305 300 298 298 297 297 297 296 296 297 298 298 297 297 296 295 295 296 296 296 295 294 294 293 292 292 291 291 290 290
318 319 320 314 310 319 324 318 318 318 319 322 321 320 319 317 319 318 316 318 317 316 314 310 310 311 310 313 315 314 314 313 313 313 312 312 311 310 310 308 308 309 309 309 309 309 309 308 309 313 315 314 315 316 316 316 315 314 313 313 311 311 310 309 308 307 307 304 300 298 297 297 297 296 296 297 297 298 298 297 296 295 295 295 295 295 295 294 293 293 293 292 291 291 290 290 290
315 317 315 315 319 321 319 320 324 324 322 326 324 318 316 316 318 318 319 323 324 320 317 315 313 310 311 316 317 316 315 314 314 314 313 313 311 310 309 308 309 309 308 309 309 308 309 308 309 313 316 315 315 316 316 315 314 314 313 312 311 311 310 308 307 306 305 303 299 298 297 296 296 296 296 297 297 297 297 296 295 295 294 294 294 294 294 293 293 293 292 292 291 290 290 289 289
310 312 310 314 321 321 319 319 321 321 322 324 325 321 318 318 321 322 320 325 328 324 322 318 312 311 314 316 317 317 316 315 315 314 313 313 312 310 309 309 309 309 309 309 308 308 309 308 309 312 315 314 315 315 315 314 314 314 313 312 311 311 310 308 306 305 303 301 299 297 297 296 296 296 296 296 297 297 297 296 296 295 294 294 294 294 293 293 292 292 292 291 290 289 289 289 288
314 315 315 315 316 316 319 318 316 322 325 324 325 323 318 320 323 323 321 324 325 325 327 321 310 312 318 317 316 317 316 316 315 314 313 312 312 311 310 309 308 308 308 308 308 308 308 308 308 311 313 313 313 315 315 314 314 314 312 311 311 311 309 307 305 304 302 299 297 297 296 296 296 296 296 296 296 296 296 296 296 295 294 294 293 293 292 292 292 291 291 291 290 289 289 288 288
315 316 316 316 316 317 318 317 315 319 321 321 322 320 318 321 320 322 325 327 320 316 318 317 311 313 317 317 316 316 316 315 315 314 314 313 312 311 310 309 308 308 308 308 308 308 308 308 308 310 311 312 313 313 313 314 313 313 312 310 310 311 309 307 305 303 300 298 297 297 296 296 296 295 295 296 296 296 295 295 295 295 294 293 293 292 292 292 291 291 291 290 290 289 288 288 287
Wind_Speed
5 7 8 8 7 7 5 4 3 4 3 2 1 0 1 1 1 1 1 1 0 2 2 5 7 9 5 5 7 9 8 3 2 2 2 7 13 13 10 9 12 14 12 11 11 11 9 9 9 8 7 8 9 8 7 7 9 10 10 10 10 9 9 9 9 10 10 10 11 13 15 17 19 20 20 21 20 19 18 17 16 16 17 16 16 15 14 13 12 10 10 10 10 11 12 12 13
6 9 9 8 6 4 2 4 2 2 4 2 1 2 2 2 1 2 3 2 3 6 10 11 11 9 7 7 9 9 9 7 6 7 8 12 13 13 11 9 13 15 13 13 11 10 10 9 9 8 7 8 9 8 7 7 8 9 8 8 9 8 8 8 9 9 9 10 10 12 15 16 18 19 20 20 20 20 18 17 16 16 16 16 16 15 15 14 14 13 12 12 13 13 13 14 15
7 9 9 7 6 5 3 5 2 1 3 2 2 3 1 0 2 4 4 5 9 12 12 10 7 5 4 4 4 4 4 6 8 10 11 12 12 12 11 10 14 15 13 13 11 10 9 9 9 8 8 8 8 8 8 7 7 8 7 8 8 9 8 8 8 8 9 9 10 12 14 15 17 18 19 19 20 20 19 18 16 16 16 16 15 15 15 14 14 14 14 14 14 14 15 15 16
8 10 8 7 7 6 4 4 1 3 2 2 1 3 2 2 5 4 3 7 11 8 5 4 3 3 3 3 4 5 5 6 7 10 11 11 11 10 11 12 15 15 13 12 11 10 9 9 9 8 8 7 8 8 8 7 6 6 6 7 7 8 9 8 8 7 8 8 9 11 12 14 15 16 17 18 19 19 19 18 16 16 16 16 15 15 14 14 14 14 14 14 14 15 16 17 17
8 9 7 5 4 3 3 3 2 3 2 3 2 2 3 4 5 5 4 7 10 5 2 2 2 3 5 5 4 4 5 6 8 9 10 10 10 9 12 15 17 17 14 13 12 11 10 10 9 8 8 8 7 7 7 7 6 5 5 5 6 6 8 8 7 7 7 8 8 10 11 13 14 14 15 17 18 18 18 17 16 15 15 15 15 14 14 14 14 14 14 14 15 16 17 17 16
8 8 7 6 6 4 3 3 2 2 3 4 2 3 4 5 5 4 4 5 8 6 2 1 3 4 5 4 4 5 6 7 7 8 10 10 10 10 12 16 19 18 15 14 13 12 11 10 9 9 8 8 7 6 5 5 5 5 4 4 5 5 6 7 7 6 6 7 8 8 10 11 12 12 13 15 16 17 17 17 16 14 14 14 14 14 13 13 13 13 13 14 15 17 17 16 16
8 6 6 7 7 4 3 3 3 2 2 3 2 3 4 6 7 5 5 4 4 5 4 2 6 5 3 4 4 6 6 6 7 8 10 9 10 10 12 17 20 19 16 14 12 11 12 10 9 9 9 7 7 6 5 5 6 5 5 5 5 4 5 5 6 6 5 6 7 7 8 10 10 10 12 13 14 15 16 16 15 14 13 13 14 13 13 13 13 13 13 14 15 16 16 15 15
7 4 4 5 4 4 3 3 3 1 1 2 3 3 3 6 8 5 3 3 4 4 5 6 6 3 3 4 3 5 6 6 7 8 9 9 10 10 10 16 20 19 17 15 12 11 10 9 9 10 9 8 7 7 6 6 6 5 5 6 6 4 4 4 5 5 5 5 6 6 6 7 8 9 10 12 13 14 15 15 14 13 13 12 13 13 12 12 12 13 13 14 15 15 15 14 14
6 4 4 5 3 3 2 2 1 2 2 3 4 3 3 6 7 3 2 2 3 5 8 8 4 0 4 5 2 6 7 7 8 9 10 9 10 10 10 13 18 19 16 16 13 12 9 8 9 9 10 9 8 8 6 6 6 5 5 6 6 5 3 3 4 5 5 5 5 6 5 6 7 8 9 11 12 13 14 15 15 13 12 12 12 12 12 12 12 12 12 13 14 14 14 14 13
4 4 4 4 3 3 2 0 1 1 3 4 4 3 3 7 6 3 3 3 4 7 8 6 2 1 6 5 3 7 7 8 9 9 10 9 10 10 11 13 16 18 17 17 15 13 10 8 7 6 9 10 8 8 7 6 6 6 6 6 6 5 3 2 3 4 4 3 4 5 5 5 6 7 8 9 11 12 13 14 15 14 12 11 11 12 12 12 12 12 12 13 14 14 14 13 14
3 3 5 4 3 2 2 2 2 2 3 4 3 3 4 6 5 3 3 4 6 7 7 5 3 5 7 4 5 8 8 9 9 9 10 10 10 11 11 13 16 18 17 17 15 13 11 9 8 6 7 8 8 9 8 7 7 7 6 6 6 5 4 2 2 3 3 2 3 5 4 4 5 7 7 8 10 11 13 14 14 15 14 12 11 12 12 12 12 12 13 14 14 14 14 14 15
2 2 4 4 2 2 3 4 3 4 4 3 2 4 4 8 6 3 6 6 6 5 6 5 3 7 5 2 6 9 9 10 10 10 10 10 11 12 11 11 14 17 17 17 15 15 14 11 9 8 6 6 7 8 7 7 7 8 7 6 6 5 4 3 2 2 3 2 2 3 3 3 4 5 6 7 9 11 12 13 13 14 14 13 12 12 12 13 13 13 14 14 15 15 15 15 16
3 2 4 3 2 2 3 4 2 2 3 3 3 4 5 9 7 6 8 6 6 5 5 5 5 7 3 2 6 10 10 10 11 11 11 11 11 13 12 11 12 15 17 18 17 16 16 13 11 10 10 9 8 8 8 8 7 7 7 6 6 6 5 5 3 2 3 2 2 2 2 2 3 4 5 7 8 10 11 12 12 14 14 14 13 13 13 13 13 14 15 15 15 15 15 16 16
5 5 4 3 1 1 4 3 1 2 2 5 3 5 6 7 6 8 9 6 7 6 4 6 9 6 2 3 5 10 11 10 12 11 12 11 11 13 13 12 12 14 16 17 17 14 13 12 13 14 13 12 9 8 8 8 7 7 7 6 6 6 6 5 5 4 4 4 3 1 1 1 1 2 4 5 6 8 10 10 11 12 14 14 14 14 14 14 15 15 15 15 15 15 15 16 16
8 7 5 3 2 1 3 1 2 5 4 4 5 6 7 5 5 9 9 5 6 7 6 8 10 4 3 5 3 8 12 11 12 11 12 11 11 12 13 13 11 12 13 13 12 11 10 9 11 13 13 12 10 9 10 9 8 8 8 6 6 7 7 6 6 6 6 5 4 2 1 1 0 1 2 4 5 7 8 8 9 11 13 14 15 15 15 15 16 16 16 16 16 16 16 16 16
9 6 5 3 2 1 3 2 2 3 4 5 8 8 6 4 7 10 8 5 5 8 9 9 10 6 3 6 2 5 11 12 13 12 12 11 11 12 12 13 11 12 11 10 9 9 12 10 9 10 11 12 11 11 12 11 10 10 8 7 7 8 8 7 7 7 7 6 5 4 3 2 2 1 1 2 4 6 7 7 7 9 10 12 14 15 15 15 15 16 16 16 16 16 15 15 15
7 4 5 3 2 3 4 4 4 4 4 5 9 11 7 3 7 9 7 7 6 9 11 9 11 11 7 7 5 4 9 13 14 13 12 11 11 12 13 14 13 13 12 10 10 11 12 11 10 10 10 12 13 13 12 11 11 11 10 9 8 8 9 8 7 7 7 7 6 5 4 4 3 2 1 1 2 5 6 5 6 7 8 9 11 13 13 14 14 14 14 14 14 14 13 13 13
4 3 4 2 3 4 6 8 7 4 3 8 11 13 8 4 8 8 5 6 7 9 12 11 11 12 11 10 8 6 9 13 15 14 13 11 11 12 13 13 13 15 14 13 13 15 14 13 13 13 12 13 13 13 13 14 13 12 11 11 10 10 9 9 9 8 8 8 7 6 5 5 4 4 3 1 1 4 6 4 5 5 6 7 8 10 11 12 12 13 13 13 13 12 11 11 11
3 3 3 3 6 4 5 10 10 3 3 12 12 12 9 5 10 9 4 4 6 7 10 12 13 13 13 12 10 8 9 13 15 14 13 12 12 13 13 13 12 14 16 16 16 17 17 17 17 16 16 14 13 13 14 15 14 14 14 12 12 13 11 11 11 10 8 8 7 7 6 6 6 5 4 2 1 3 6 5 5 5 5 6 6 8 9 10 11 11 11 11 11 10 9 10 10
2 4 2 4 6 3 4 10 11 3 4 13 12 10 8 5 10 9 5 3 4 8 10 13 15 15 14 13 11 10 10 12 15 15 14 13 12 13 14 13 13 13 14 16 18 18 19 20 20 20 20 18 16 15 14 15 15 16 16 16 16 15 13 12 12 11 10 10 9 7 7 8 7 6 5 3 2 2 5 5 5 5 5 5 5 6 7 8 9 9 10 9 9 8 8 9 9
2 4 2 4 4 2 3 7 7 2 4 12 11 8 6 5 9 9 6 2 4 11 14 14 15 13 11 12 11 11 11 12 15 16 15 14 13 13 13 12 12 12 11 12 15 17 19 20 20 20 21 21 20 18 16 17 17 16 15 16 17 15 14 13 13 13 11 11 10 8 9 9 9 8 7 6 5 4 3 5 6 6 5 5 5 5 5 7 8 8 8 7 7 8 8 8 9
4 2 1 3 5 2 2 3 5 5 5 10 10 7 5 6 8 9 9 6 6 8 9 10 12 11 10 10 11 11 12 13 14 15 15 14 13 13 12 11 9 9 9 9 10 12 15 15 15 16 17 18 20 18 16 16 16 17 17 16 16 15 16 15 14 14 12 11 10 9 9 10 11 10 9 8 7 6 4 4 5 6 6 5 4 4 3 5 6 7 6 6 6 7 7 8 8
4 2 1 5 4 3 3 3 5 6 6 9 9 6 5 6 6 8 13 15 13 9 6 6 7 9 10 11 12 13 13 13 14 14 14 14 13 13 12 11 10 9 9 9 9 10 11 11 12 13 13 15 17 18 19 18 18 18 20 20 17 16 17 16 15 15 12 12 12 10 10 11 12 12 11 10 9 8 7 5 4 5 5 4 3 2 2 4 4 4 4 4 4 5 5 7 8
5 2 2 3 3 3 4 4 6 6 6 7 6 5 4 5 5 6 14 20 18 16 15 12 11 10 11 12 14 14 13 13 14 14 14 14 14 14 14 13 12 10 10 10 10 10 10 11 11 12 13 15 15 17 19 21 21 17 17 19 17 17 18 18 17 17 14 15 14 12 12 14 15 14 13 12 9 10 11 10 6 4 4 2 1 1 2 4 5 4 3 2 2 2 4 6 8
5 3 3 3 3 3 4 5 6 6 4 4 4 4 3 4 5 8 18 21 17 17 18 17 17 15 13 13 13 14 14 14 15 15 15 14 14 14 15 14 13 12 11 11 11 11 11 11 11 11 13 15 16 17 18 20 21 21 18 17 17 18 18 18 18 17 17 17 14 12 12 13 16 16 15 14 10 12 15 13 9 7 4 3 2 2 1 5 7 6 5 2 1 1 4 6 8
3 5 4 3 4 4 4 5 5 5 3 3 3 3 2 3 4 10 19 19 17 18 17 16 16 15 14 13 14 14 15 15 15 15 15 15 15 15 15 15 14 13 13 13 12 12 12 11 12 12 13 15 17 17 19 20 21 24 24 20 19 19 19 18 17 15 14 14 12 11 12 11 12 13 15 16 13 13 16 16 13 8 5 6 5 3 0 4 7 5 4 2 2 2 4 7 8
5 7 7 5 4 3 2 4 3 4 3 2 4 2 2 2 1 7 11 9 11 15 16 17 16 16 15 14 14 15 15 16 16 16 16 16 15 15 15 15 15 14 14 14 13 12 12 12 13 13 14 16 17 17 19 20 20 22 24 22 20 20 20 17 14 14 13 12 10 10 11 10 8 9 12 15 15 16 16 18 16 8 6 7 7 7 4 1 4 4 4 3 2 2 4 6 7
6 6 5 6 5 1 1 2 2 3 2 3 3 1 3 1 2 10 11 8 9 11 13 15 16 16 15 14 14 15 16 16 17 17 16 16 16 16 17 17 17 15 15 15 13 13 13 13 13 13 14 15 17 18 18 18 19 18 17 19 19 18 19 16 13 15 14 12 11 10 11 9 7 8 8 9 11 14 15 16 14 8 7 7 6 6 5 2 4 6 6 4 3 3 4 6 6
6 6 2 5 7 3 3 2 3 3 1 2 2 2 5 3 9 15 12 11 12 12 13 14 15 16 16 16 16 16 17 17 18 18 17 17 17 18 18 19 18 17 16 15 14 14 14 13 13 13 13 15 16 19 19 18 17 17 16 16 17 17 16 14 14 16 16 14 12 11 11 10 9 9 7 6 6 11 12 12 11 8 6 6 5 2 2 4 5 6 6 5 5 4 3 6 6
5 5 2 3 6 4 2 2 1 4 2 3 5 2 6 6 15 17 12 13 13 13 15 15 16 16 17 17 17 18 18 19 19 18 18 19 19 18 19 19 18 18 17 16 16 15 15 13 13 12 13 14 15 18 18 17 16 19 22 19 17 18 16 15 17 17 17 15 12 11 10 8 9 8 9 9 9 11 11 11 11 9 6 5 5 3 3 4 5 5 6 5 4 4 4 6 6
2 2 3 2 1 4 4 1 4 4 4 6 6 2 6 8 11 10 12 15 14 15 16 16 17 17 18 19 19 20 20 21 20 19 20 20 20 19 19 19 19 19 19 18 17 16 15 13 11 11 12 13 15 17 16 17 16 17 22 20 18 18 15 16 18 16 15 14 13 11 8 8 9 8 9 9 9 9 10 11 10 8 8 7 7 6 5 6 6 6 5 4 4 3 3 6 7
3 1 2 3 1 4 7 1 5 3 2 6 5 2 6 9 10 8 9 14 15 17 18 17 18 18 19 20 21 22 22 22 22 22 23 22 21 20 19 20 20 20 19 18 17 16 14 11 10 11 12 13 15 15 14 17 15 13 17 18 18 18 13 12 14 14 14 15 13 7 7 10 10 8 7 7 6 7 9 10 9 9 9 9 8 8 8 8 7 6 5 3 1 2 5 7 9
4 1 2 1 1 3 5 1 1 1 2 4 3 2 4 4 4 3 3 10 14 17 19 19 19 19 19 20 22 23 24 24 24 24 24 23 22 21 20 20 21 20 19 18 16 15 13 11 10 10 10 12 11 12 14 15 13 14 17 16 17 17 13 11 12 12 12 12 10 5 8 11 11 7 7 7 6 6 7 9 10 9 10 10 9 9 10 9 8 5 6 5 2 4 7 9 10
3 3 1 3 2 2 3 3 2 2 2 3 3 3 7 7 7 8 7 8 11 16 21 20 19 19 20 21 24 25 25 26 25 24 23 23 22 21 21 21 21 20 19 18 16 14 13 11 10 9 8 9 9 12 17 17 15 18 17 15 17 17 15 15 13 9 8 7 7 7 9 10 10 8 9 7 5 5 7 10 11 10 11 11 10 10 10 10 9 5 5 8 7 7 8 8 8
3 2 1 2 2 3 4 3 1 1 1 3 3 5 11 12 15 21 18 12 14 19 22 22 21 22 23 25 27 27 28 27 24 23 23 24 23 22 22 21 21 20 19 18 15 14 13 11 10 8 7 9 10 12 17 18 19 22 17 15 18 17 16 17 13 10 10 10 10 10 11 10 9 9 7 4 4 6 9 12 11 11 12 11 10 11 10 10 10 7 6 9 11 9 8 7 7
6 5 4 3 3 4 5 5 3 1 1 4 6 7 11 11 12 20 22 16 17 23 25 26 26 27 28 29 30 30 31 29 25 24 25 26 25 23 23 22 21 20 19 19 16 13 12 11 10 9 8 12 12 11 16 17 17 19 18 18 19 16 15 15 12 9 8 10 11 11 11 10 9 9 6 3 7 11 12 13 12 12 11 9 8 9 10 11 10 10 8 8 9 9 9 7 6
7 5 4 4 4 5 5 3 5 0 2 6 8 7 10 11 10 18 23 15 15 23 25 28 31 31 33 33 34 34 33 31 27 26 27 27 27 25 24 23 22 22 20 20 16 13 12 11 12 12 10 14 15 14 16 17 17 17 20 23 21 16 13 12 12 10 8 8 9 9 9 9 9 7 6 8 12 13 13 12 11 11 11 9 9 10 12 13 11 10 9 8 7 6 7 7 6
6 6 4 2 3 6 5 1 4 1 2 5 5 5 11 11 11 18 22 13 16 26 26 30 34 33 35 35 36 35 33 32 30 29 30 30 29 27 26 25 24 23 21 20 16 13 13 12 13 13 12 15 18 18 17 18 19 18 21 25 22 17 15 12 12 11 9 9 10 10 10 10 8 7 10 14 14 11 11 11 12 12 12 12 13 13 13 13 12 9 7 7 7 5 5 6 5
5 4 4 2 3 4 5 2 4 2 2 5 5 6 10 11 10 17 23 19 22 30 30 32 34 33 37 38 36 35 33 33 31 31 32 32 31 29 28 27 25 24 21 19 17 14 14 13 14 14 15 16 18 19 19 19 19 17 18 20 17 15 14 13 12 11 11 12 11 12 11 10 9 10 14 15 13 11 11 13 15 15 14 13 13 13 13 12 11 10 7 5 6 5 4 5 5
2 4 4 3 2 1 3 3 4 2 1 3 5 8 9 8 9 14 22 23 26 33 32 32 35 36 40 38 35 34 32 33 32 31 31 32 32 31 30 29 27 24 22 20 18 16 15 15 14 15 17 18 18 18 18 18 17 16 16 15 13 13 13 14 13 12 12 12 12 12 10 12 13 14 17 14 12 13 14 15 17 17 15 13 11 12 12 11 10 9 8 6 5 4 3 3 4
2 4 5 4 3 4 5 3 4 2 2 2 4 8 7 4 6 8 11 12 19 28 28 31 37 39 41 39 37 36 35 34 32 30 30 31 33 33 32 30 27 25 23 21 19 17 15 15 16 18 19 18 18 18 18 17 17 17 16 14 15 16 15 15 14 13 13 13 13 12 13 16 16 15 16 14 14 16 16 17 17 16 16 14 11 11 11 11 10 9 7 6 4 3 2 1 3
4 4 7 7 5 4 3 3 5 4 3 3 4 5 6 3 3 7 6 3 10 16 15 24 33 32 33 34 35 35 34 33 31 29 28 29 32 33 32 31 28 26 24 21 19 17 15 15 17 20 20 18 19 19 18 17 16 17 18 16 17 18 16 16 15 13 13 15 15 16 18 19 17 16 17 17 17 18 17 17 15 15 15 14 13 11 11 10 9 8 7 6 4 3 2 1 1
2 4 7 7 5 4 2 0 1 1 3 2 3 2 6 6 4 7 6 4 9 10 11 22 28 25 27 29 29 28 27 27 27 27 26 27 30 33 33 32 29 27 24 21 20 18 17 17 18 20 20 19 20 20 19 18 17 19 20 17 16 16 15 15 14 14 16 18 18 18 20 20 19 19 20 20 19 18 17 16 15 15 14 14 13 11 10 9 8 7 6 5 4 2 2 1 1
3 3 4 6 7 6 4 3 2 2 3 3 2 4 3 8 6 5 4 5 9 11 14 19 17 17 22 24 23 23 22 23 23 25 25 26 29 31 32 31 29 27 24 22 21 19 18 19 19 20 21 20 20 19 19 19 19 21 21 18 16 15 13 12 12 15 18 19 20 21 23 23 23 23 22 21 20 18 17 16 15 15 14 14 13 11 9 9 8 7 6 5 4 2 2 1 1
4 3 6 6 6 5 5 5 2 1 3 4 1 4 2 7 7 3 4 3 7 11 15 14 10 13 16 15 14 15 17 19 21 22 23 23 26 28 30 30 28 27 24 23 21 20 19 20 21 22 22 21 22 21 21 20 19 21 21 17 17 17 14 11 11 15 19 20 22 25 26 26 26 25 23 21 20 19 17 17 16 15 14 13 13 11 9 8 7 6 6 5 4 2 2 1 1
4 7 7 6 5 5 5 4 3 2 3 4 5 5 3 6 5 0 1 1 6 11 12 10 12 13 11 9 8 10 12 15 16 18 19 20 22 25 28 29 28 27 24 23 22 21 21 21 23 24 23 22 23 24 23 21 21 23 21 18 17 17 16 14 13 16 20 23 26 28 28 28 27 26 24 22 21 20 19 18 17 16 14 13 13 11 9 8 8 6 5 4 3 1 1 0 0
11 8 6 7 5 5 4 2 4 2 4 5 6 7 3 4 5 3 3 4 6 8 7 8 10 7 4 4 4 5 8 10 11 14 15 17 20 24 28 29 29 27 25 24 23 22 23 23 24 26 24 23 24 25 25 24 24 24 21 18 18 17 16 15 15 18 22 26 29 31 30 29 28 26 25 24 22 21 21 19 18 17 15 14 13 12 10 8 7 6 4 3 1 0 1 1 1
8 4 4 4 3 4 4 4 4 1 5 4 3 2 1 5 7 3 5 7 6 6 6 7 8 4 4 2 3 5 5 6 9 11 14 17 21 26 30 31 30 29 27 27 25 24 24 25 26 27 25 25 24 24 26 27 26 25 21 19 20 17 15 16 17 19 24 29 31 32 32 30 29 27 26 25 24 23 21 20 18 17 15 14 13 11 9 8 6 5 4 3 2 2 2 2 3
4 4 6 4 2 2 3 3 1 2 6 3 2 1 2 8 8 7 11 12 10 11 12 13 13 11 7 6 8 8 6 6 8 11 14 18 22 26 30 32 31 31 30 29 27 26 26 26 27 28 27 26 25 24 25 26 25 24 23 22 21 18 16 17 18 20 25 30 32 33 32 31 30 29 27 26 25 23 21 19 18 16 15 13 12 10 8 7 6 6 5 4 3 3 2 3 3
4 5 6 4 2 1 3 3 1 4 5 2 1 1 3 6 6 11 17 18 16 17 19 20 19 18 16 15 14 11 9 9 9 11 14 17 21 25 29 30 30 32 32 30 28 27 27 28 29 29 28 28 27 26 26 26 25 25 25 24 22 20 18 18 19 21 25 31 33 32 31 30 29 28 27 26 24 23 21 19 17 16 14 13 11 9 7 6 6 5 5 4 4 3 3 3 4
5 3 5 5 5 5 4 3 3 4 3 3 2 1 4 3 3 7 12 15 17 20 23 24 24 25 22 20 18 15 14 13 12 13 15 17 20 24 28 29 30 32 32 31 29 28 28 29 29 30 30 29 28 27 27 26 26 26 25 24 22 21 19 19 21 22 24 30 32 32 30 29 28 26 26 25 24 22 20 19 17 16 14 12 10 9 7 6 5 5 5 4 4 4 4 4 5
3 3 4 3 5 5 2 3 5 2 2 3 2 4 5 4 6 9 10 11 13 17 19 21 27 30 25 25 26 23 20 18 17 17 17 19 21 24 27 29 30 31 32 32 30 29 29 29 30 30 29 28 27 27 28 27 27 27 26 24 23 21 20 20 23 24 26 29 31 31 29 28 26 25 25 24 23 21 20 18 17 16 14 12 10 9 7 6 6 6 5 4 4 5 5 5 6
2 3 3 4 4 6 4 2 1 3 2 4 2 5 5 4 8 10 9 10 10 11 12 15 24 26 23 28 31 28 25 22 18 19 19 19 21 24 27 30 31 31 32 33 31 29 28 29 31 31 30 28 27 27 29 29 28 29 28 25 22 21 21 22 23 25 27 29 31 30 29 27 26 25 24 23 22 21 19 18 17 16 15 13 11 9 8 7 7 6 5 4 4 5 5 6 7
5 3 6 3 2 4 4 1 2 3 3 4 1 5 5 3 6 4 1 6 10 10 10 14 18 18 20 28 31 28 25 21 18 18 18 20 22 24 27 30 31 30 31 31 30 29 28 28 31 33 33 31 28 27 29 30 31 30 28 25 21 20 21 22 23 25 28 30 32 31 29 28 26 25 24 23 22 21 20 19 18 16 14 13 11 10 8 8 7 5 5 5 5 6 7 8 9
4 4 4 4 3 2 2 2 2 1 3 4 4 5 5 6 6 1 2 7 10 11 11 11 13 15 20 26 27 25 22 18 18 18 18 20 22 24 27 30 31 30 30 31 30 29 29 29 30 32 33 30 28 28 29 30 32 30 26 24 21 20 22 24 25 27 30 32 33 32 30 28 27 26 25 24 23 22 20 19 18 16 14 13 11 10 9 8 7 6 5 5 6 7 8 9 10
3 2 2 2 2 3 3 3 3 3 2 3 4 4 6 8 7 6 8 11 10 10 10 9 13 20 24 25 24 22 19 17 17 17 17 19 21 23 26 29 30 30 29 30 31 30 29 29 30 32 32 31 30 30 31 32 32 29 26 24 23 22 24 26 27 29 31 33 33 32 30 29 28 27 26 25 23 22 21 19 18 16 15 13 12 10 9 8 7 7 6 6 7 8 9 10 10
3 3 4 2 1 2 1 1 2 4 3 2 2 5 10 7 5 8 10 10 10 11 9 9 16 24 26 25 23 18 15 13 13 13 15 17 18 20 24 27 30 30 31 31 32 31 30 30 32 33 33 33 32 31 32 32 32 30 28 26 25 24 25 27 29 31 33 34 34 33 31 30 29 28 27 26 24 22 21 19 17 16 15 14 12 11 10 9 8 8 7 7 7 8 9 10 10
5 6 6 7 5 4 2 2 1 2 3 4 3 6 13 7 5 7 8 8 9 11 10 10 15 23 23 20 17 14 11 8 7 9 12 14 16 18 22 26 29 32 33 33 33 32 31 31 33 34 34 36 35 33 32 32 32 32 30 29 28 26 26 29 31 33 35 36 35 34 32 31 30 29 27 26 25 23 22 20 18 17 16 15 13 12 11 10 10 9 8 7 8 9 10 10 10
Wind_Direction
107 113 117 114 111 119 99 95 93 22 71 90 352 169 229 225 308 182 248 292 247 319 161 153 137 134 125 104 117 95 71 91 120 102 144 153 155 165 179 177 175 174 163 161 158 152 149 145 140 134 133 128 116 109 105 97 90 85 86 88 91 94 89 80 73 67 56 50 55 53 48 52 54 54 53 52 54 56 58 60 61 62 63 64 66 68 70 71 71 71 69 65 62 62 61 58 59
122 123 119 110 101 136 113 58 95 346 55 81 271 189 262 312 9 182 212 226 153 111 104 115 116 113 106 94 98 84 63 65 86 107 129 148 157 164 174 176 172 172 166 160 163 157 147 148 142 135 141 134 123 117 111 101 94 94 96 98 103 104 97 87 78 69 55 53 59 55 51 55 58 55 52 51 52 54 57 60 63 66 67 68 70 71 73 74 74 74 71 69 68 69 67 65 66
129 130 123 111 86 102 108 47 77 63 69 94 262 235 274 39 197 214 210 165 137 121 107 109 104 94 95 89 77 77 88 83 97 119 131 149 161 165 170 175 169 171 169 162 166 161 151 157 151 147 148 134 122 114 104 96 96 103 108 112 119 118 109 96 84 71 58 61 67 61 57 61 61 56 52 51 52 53 55 59 64 68 71 72 73 74 76 77 78 77 74 73 73 74 75 73 73
131 130 123 118 94 80 76 40 109 121 102 163 245 243 234 176 193 214 187 154 151 136 116 121 95 63 73 101 98 92 116 113 115 129 136 151 163 167 167 172 168 168 173 168 165 163 164 163 155 159 150 133 122 111 100 93 95 103 106 118 130 125 113 101 88 76 65 68 69 63 61 64 62 55 50 50 51 52 53 57 63 68 72 74 76 76 77 78 79 78 76 75 75 78 80 78 76
134 128 120 122 100 73 87 73 99 94 155 181 151 229 238 201 188 209 195 177 188 182 131 138 110 95 92 102 110 103 127 134 131 135 140 152 163 164 162 167 166 167 175 173 167 169 171 163 163 173 156 141 130 113 101 94 96 100 101 123 140 130 114 104 90 82 74 71 68 64 62 63 60 53 48 50 51 51 53 55 60 68 74 76 78 79 79 79 78 79 78 78 78 81 82 82 80
131 125 107 104 93 97 104 79 87 83 196 173 124 235 234 197 184 183 163 174 203 205 208 193 147 134 104 91 105 121 131 139 141 140 144 152 160 160 159 163 165 167 175 177 174 173 168 166 175 179 159 146 142 127 115 106 101 104 109 133 149 134 113 104 90 84 83 76 71 67 61 61 59 51 48 50 52 54 54 54 59 68 76 80 81 82 83 82 82 81 81 82 82 84 84 84 81
126 120 97 97 73 63 90 100 142 127 185 170 139 227 221 187 170 149 137 135 181 202 219 183 145 131 107 106 117 137 140 146 144 143 147 150 156 159 160 163 166 167 174 178 177 176 168 172 184 180 164 157 159 151 141 127 112 110 117 137 152 139 114 102 92 86 87 82 73 71 64 60 57 51 49 49 51 54 54 54 58 66 77 83 85 86 86 85 85 85 85 85 85 86 86 85 82
127 114 95 99 39 33 87 102 168 187 171 222 249 231 212 175 164 159 157 154 172 191 183 159 145 123 158 154 142 159 155 153 147 145 151 151 155 160 162 165 167 166 173 179 179 184 173 173 186 181 169 169 170 156 154 139 116 112 118 134 148 148 128 107 100 91 87 84 74 76 68 58 56 51 47 47 49 52 52 51 54 62 75 84 88 88 89 88 87 86 87 87 88 88 88 87 84
123 111 95 92 66 43 56 60 171 240 257 256 249 226 192 169 169 178 173 161 178 175 166 159 151 29 183 179 181 175 168 163 154 148 152 155 159 164 163 162 166 166 174 179 179 185 180 173 174 177 176 175 173 160 158 145 122 117 120 132 146 155 144 110 106 95 91 90 75 77 67 54 57 51 46 45 46 49 49 47 49 55 68 81 86 87 88 87 87 86 87 88 87 88 87 86 83
107 103 112 86 81 58 38 285 213 245 248 257 247 215 169 173 177 181 165 146 158 163 171 179 199 186 172 179 173 176 182 173 161 155 158 162 164 167 166 163 167 169 175 179 180 183 185 184 171 175 184 176 173 169 162 151 136 127 123 132 146 158 155 124 109 99 99 98 82 73 59 52 58 51 44 45 46 48 48 46 47 49 58 74 84 86 85 83 83 83 83 84 84 83 81 78 75
85 74 107 82 78 106 170 195 242 264 271 290 265 196 167 179 174 167 164 145 157 164 180 194 218 176 163 183 183 182 187 179 173 166 165 169 172 170 172 172 170 171 175 178 182 185 183 188 189 182 182 184 185 179 168 160 145 137 134 136 148 162 165 148 125 118 113 100 86 70 54 56 55 47 41 44 48 48 47 46 48 48 51 62 76 83 83 81 78 77 75 77 78 77 75 72 68
109 40 83 84 119 167 186 160 210 278 312 318 172 170 171 177 176 177 168 158 166 171 186 194 199 171 158 209 192 188 188 182 178 174 172 173 178 176 178 180 173 173 177 179 182 189 184 181 192 187 189 203 196 186 175 169 155 148 148 148 156 164 171 168 155 144 129 114 98 75 62 58 42 36 38 44 49 50 47 47 50 51 53 56 66 74 78 80 77 75 73 73 73 72 71 69 66
157 147 88 93 158 155 146 135 202 315 327 265 177 158 163 176 196 204 175 159 168 169 198 203 180 171 178 222 195 195 190 187 182 177 179 176 182 182 183 183 174 174 178 182 187 192 187 179 185 185 196 204 193 194 193 186 174 165 164 162 166 167 173 173 172 182 162 161 154 102 70 52 24 24 36 45 51 52 48 48 53 55 58 60 63 68 72 76 77 76 75 74 72 71 70 69 69
155 144 98 109 136 117 139 120 194 167 232 250 187 161 162 178 212 209 182 162 182 182 195 192 171 169 210 200 205 206 193 190 187 182 186 183 186 186 189 190 179 179 180 185 194 193 185 187 196 193 197 198 190 198 202 198 187 181 178 168 170 174 176 176 184 201 197 191 188 167 89 80 29 25 39 50 57 59 53 50 55 58 64 67 69 72 74 76 78 78 78 77 76 74 74 73 72
146 124 86 107 83 74 167 147 158 158 219 225 171 173 162 176 200 194 189 179 203 195 177 177 173 179 215 194 211 211 200 196 190 187 192 191 191 191 194 199 190 185 183 183 192 194 186 195 208 202 203 202 195 202 207 204 197 194 188 179 179 178 180 185 192 203 208 206 203 213 215 194 173 32 41 57 70 72 62 57 60 63 69 75 78 78 79 81 81 82 81 80 79 78 77 76 74
139 118 73 91 122 182 180 161 132 139 236 207 166 168 148 161 172 175 194 197 206 197 186 186 192 205 206 196 223 217 204 201 196 193 197 194 197 198 197 202 196 190 190 180 182 201 199 202 215 208 206 203 197 206 210 207 208 207 199 196 193 185 187 192 199 207 215 217 215 219 230 234 226 233 15 58 79 86 77 68 69 72 75 82 86 87 84 84 84 84 84 83 82 81 80 79 77
128 101 67 88 155 194 186 171 175 163 222 210 175 171 152 153 168 173 196 200 203 200 198 201 207 218 222 218 243 239 210 207 204 201 205 202 204 207 202 204 198 194 201 195 196 211 207 210 223 215 211 206 198 206 215 214 214 209 204 208 206 199 195 196 204 213 222 226 227 227 229 241 236 233 241 74 84 99 95 84 85 84 84 87 90 92 90 87 85 82 82 82 82 81 80 79 78
113 99 96 146 173 194 190 177 186 160 166 192 182 178 168 160 174 173 180 194 206 209 212 217 222 226 231 239 249 242 215 211 212 209 215 215 216 221 218 216 207 198 202 203 206 211 210 214 220 218 221 217 207 215 222 220 223 220 215 218 219 214 204 203 210 215 225 231 237 234 225 238 240 236 236 197 86 110 111 109 111 104 96 94 90 90 87 84 81 78 77 77 78 78 76 75 73
85 102 105 193 194 205 196 179 178 129 137 176 175 181 181 174 175 174 184 204 200 211 224 225 231 235 236 243 246 238 220 215 217 216 220 222 226 229 230 231 225 211 204 202 204 206 208 212 214 217 224 224 214 214 210 209 227 233 223 219 220 221 216 210 214 215 219 226 234 235 225 234 245 239 234 231 221 125 126 140 135 123 115 109 99 88 81 77 76 75 73 71 71 70 69 70 65
65 98 103 230 206 213 197 181 178 126 126 164 167 180 186 181 176 181 201 209 203 221 228 225 234 242 243 245 244 236 224 220 220 221 223 226 232 233 233 234 233 231 221 211 209 211 215 220 221 221 226 229 215 206 207 218 239 243 233 230 227 228 229 217 217 219 216 221 221 230 226 226 243 239 228 230 226 170 139 153 152 143 145 135 115 98 85 77 74 73 70 67 64 60 59 63 59
68 100 154 215 177 144 176 187 191 166 137 163 167 170 188 191 183 193 194 183 245 240 239 238 245 251 250 248 247 241 232 227 223 224 227 230 236 238 238 235 233 237 238 228 221 220 225 232 232 228 230 228 213 204 217 234 241 241 237 238 237 236 237 227 222 221 215 219 219 229 231 222 237 234 223 229 225 224 176 158 161 159 168 165 146 127 105 87 78 73 68 62 60 55 50 52 52
77 41 210 143 121 107 151 176 182 169 146 159 160 159 192 191 192 210 199 201 242 247 254 251 250 252 250 249 249 247 240 235 229 227 229 233 238 241 241 235 229 229 234 237 231 229 232 235 233 231 232 225 214 206 214 223 223 229 231 238 248 242 240 236 229 230 223 221 227 237 236 225 234 234 221 219 218 226 221 189 176 171 185 188 169 159 126 97 83 73 65 55 53 48 42 47 46
90 15 175 125 88 73 111 133 158 163 157 158 159 173 197 185 208 231 221 231 244 249 261 252 246 247 251 252 248 246 244 242 238 234 233 236 240 240 237 231 227 224 227 233 234 235 235 235 233 235 237 232 225 215 211 213 218 231 232 235 250 251 249 243 230 233 233 229 233 234 238 237 235 235 228 221 214 215 230 239 211 181 195 201 175 162 109 79 67 58 50 40 44 41 34 40 42
100 106 174 144 59 53 103 121 144 149 158 163 165 184 193 196 219 250 243 246 251 255 258 258 257 258 260 257 250 245 241 240 239 239 238 237 238 235 233 230 228 227 229 234 238 239 238 237 235 235 239 242 240 231 222 220 220 226 227 228 244 253 248 243 235 230 227 230 236 235 243 245 231 224 228 230 214 204 223 241 235 206 202 207 188 160 60 36 24 6 346 348 27 45 42 37 38
67 124 182 148 69 63 121 133 148 149 154 167 184 199 208 238 246 260 259 259 257 257 260 261 261 261 262 257 251 244 237 235 234 237 238 237 235 232 231 232 233 235 237 241 244 247 248 247 244 240 240 242 245 243 237 230 221 214 221 231 241 246 241 241 241 235 231 236 241 241 248 249 233 222 220 226 222 208 220 232 228 205 209 260 233 183 37 5 355 334 306 274 154 95 62 45 39
61 123 138 117 70 67 132 155 161 173 186 183 209 242 257 267 282 269 265 265 257 253 257 259 260 260 259 254 246 239 235 234 233 235 237 237 236 235 234 236 238 239 244 247 248 251 253 255 257 254 249 246 246 245 241 240 229 216 221 230 234 241 243 239 236 241 245 236 228 230 246 258 247 233 219 220 226 221 222 226 219 201 231 264 236 201 157 346 334 305 259 202 151 115 62 49 43
102 108 104 79 52 47 145 181 180 196 214 221 211 245 283 254 285 259 262 266 253 250 251 253 256 256 255 250 240 235 233 232 234 235 236 236 236 238 239 240 241 242 245 247 248 252 254 255 257 256 256 255 253 251 244 240 233 223 224 229 236 241 238 232 230 239 234 220 225 230 242 254 253 250 230 222 225 224 227 223 210 198 231 238 220 213 196 300 298 228 184 160 139 97 56 52 49
93 106 102 33 15 353 285 231 232 212 219 258 210 267 300 133 178 245 252 261 261 256 253 251 250 250 249 243 237 234 233 232 234 236 237 239 239 239 240 241 243 245 246 248 250 253 254 255 256 256 256 257 257 256 251 242 229 219 220 226 234 233 228 227 226 224 216 224 243 235 235 239 247 261 234 215 215 211 219 219 207 205 217 207 207 214 199 237 250 195 164 153 140 95 57 61 62
80 88 117 343 5 2 316 313 250 209 227 266 142 322 293 216 228 245 254 261 261 255 251 249 245 244 242 239 236 234 235 235 236 240 242 244 244 242 241 241 243 244 245 248 251 252 253 255 255 255 254 255 254 250 250 245 223 207 216 224 224 227 235 236 223 218 225 236 232 222 236 240 241 248 212 183 179 180 192 202 206 211 202 195 204 215 229 235 215 185 168 158 136 103 71 73 77
81 54 71 347 5 348 316 7 217 182 190 169 134 274 276 249 244 246 255 256 253 250 246 246 244 241 239 237 237 236 236 240 242 245 247 248 249 246 243 242 241 242 244 246 248 248 248 250 250 252 254 252 249 246 243 242 228 210 215 222 223 233 247 240 223 227 239 236 214 215 241 241 229 218 181 171 171 173 184 193 202 204 190 187 181 175 209 194 179 178 171 154 125 102 77 83 94
74 28 39 37 11 279 293 11 158 162 195 174 144 251 264 267 263 257 257 248 244 248 248 248 246 242 241 240 240 239 239 243 245 246 249 252 252 248 243 241 240 240 243 245 246 245 244 246 248 250 253 249 243 241 231 230 234 219 214 219 223 231 243 233 225 235 239 221 206 213 233 225 205 187 172 177 182 188 196 193 190 185 175 166 157 177 195 172 168 171 158 141 110 107 99 105 112
38 67 325 356 143 269 306 320 158 152 193 173 153 247 271 272 273 282 258 236 234 244 249 249 247 246 246 245 245 244 243 243 244 245 248 251 252 251 245 240 240 241 243 244 244 247 248 248 249 249 249 243 237 232 218 219 227 213 208 214 216 221 231 226 219 222 212 196 190 200 222 201 177 171 178 185 189 192 188 177 173 175 176 174 169 177 177 162 163 157 140 135 95 131 136 124 118
2 67 222 268 133 283 315 348 179 89 127 181 192 238 278 270 264 329 268 232 234 241 248 249 247 249 248 249 250 249 248 246 245 246 247 250 251 249 245 241 241 242 244 244 245 250 253 251 249 247 244 239 229 216 212 221 218 199 204 216 219 218 220 209 197 193 185 180 173 176 209 186 161 172 192 194 196 189 178 168 170 175 177 181 174 162 161 157 155 157 145 142 148 148 140 128 120
322 23 117 232 215 236 293 318 310 39 95 218 226 224 256 260 264 287 292 263 247 244 252 253 249 250 251 252 252 251 250 248 249 249 249 251 251 248 244 242 243 243 245 246 245 249 250 249 248 245 240 234 215 197 203 219 218 202 208 226 222 213 214 211 207 212 213 205 188 189 209 186 160 178 196 204 206 181 167 166 164 162 159 163 158 150 158 157 151 164 159 142 141 138 133 127 123
194 168 138 245 246 234 255 276 278 60 68 235 226 244 258 266 274 276 277 270 253 253 259 259 256 255 255 254 253 253 251 250 252 252 251 252 251 247 243 242 244 244 244 245 243 242 241 240 242 239 225 215 204 194 200 213 216 207 210 215 205 202 214 220 230 247 239 227 218 213 220 207 179 181 191 195 175 152 153 159 156 148 144 146 148 149 154 154 148 154 159 144 140 137 132 127 123
153 166 146 157 206 251 241 249 271 178 186 246 231 239 255 263 274 275 273 265 253 258 261 261 261 259 257 255 254 254 253 254 255 252 250 250 250 248 244 243 243 242 242 243 240 236 234 229 229 229 214 203 199 196 199 203 206 210 214 208 201 205 213 215 221 225 212 210 214 214 219 214 195 192 198 171 151 146 145 151 151 146 145 144 150 151 146 145 142 143 146 141 138 139 138 132 122
117 123 112 149 198 266 253 254 302 331 183 256 239 239 262 264 267 269 271 266 251 254 256 257 259 258 258 257 256 256 256 257 255 250 249 249 248 247 245 243 242 240 239 241 240 234 229 221 217 218 206 196 196 196 200 208 216 221 222 217 216 211 202 205 206 201 196 195 194 196 206 201 190 195 188 158 151 150 152 158 160 157 153 151 153 148 139 137 137 140 140 136 137 139 141 137 128
94 118 122 182 213 254 254 239 318 341 178 269 278 269 264 259 263 269 269 259 244 248 248 253 256 258 260 260 259 259 258 257 253 249 247 245 245 244 243 242 240 239 238 239 240 233 228 219 211 208 200 195 199 199 201 216 226 229 228 221 212 197 188 199 209 204 193 187 185 185 192 197 196 191 170 160 161 166 174 173 166 158 149 147 149 143 139 137 137 140 135 134 139 140 140 137 132
83 110 125 235 239 271 288 319 336 15 176 268 314 296 266 255 256 261 258 248 250 252 249 253 257 259 261 261 261 261 259 257 253 249 246 244 244 243 242 240 237 236 236 236 235 230 225 218 210 202 197 197 202 202 204 221 230 224 219 211 198 192 191 193 203 204 183 176 181 182 191 208 204 181 169 171 174 170 165 157 150 144 140 145 146 141 140 137 135 133 124 118 123 131 139 136 142
100 124 133 239 259 283 290 307 324 17 154 275 308 290 270 252 246 254 255 252 258 261 258 259 258 257 260 261 262 263 260 259 256 251 246 243 241 240 239 238 235 233 232 232 232 229 222 216 209 198 198 201 204 207 207 216 218 202 195 196 198 202 192 181 184 190 183 180 185 188 201 206 189 174 172 174 166 155 150 146 140 136 139 145 143 137 134 131 128 123 116 107 96 108 129 137 155
262 171 165 207 219 213 234 286 320 339 3 8 337 297 283 259 251 260 266 261 261 262 262 261 258 257 259 260 260 261 261 260 258 253 247 242 240 238 238 236 234 232 231 231 230 228 220 211 204 196 200 204 204 207 204 206 208 199 196 200 200 193 181 178 184 190 192 195 200 205 204 192 178 172 170 163 155 152 150 145 139 139 141 140 138 132 126 123 121 115 111 111 98 93 103 134 162
291 232 200 202 188 199 234 330 2 9 337 344 17 320 290 287 259 260 281 302 269 265 261 259 259 258 258 257 258 259 259 260 258 256 250 244 240 236 235 234 232 231 230 228 226 223 215 205 200 197 199 203 203 205 204 208 216 216 216 213 201 192 186 187 195 207 205 201 208 209 197 183 173 169 163 157 154 152 148 146 144 145 140 134 133 130 124 120 118 116 112 112 111 101 99 117 176
305 250 207 193 154 151 200 282 15 337 266 277 62 37 284 288 243 241 276 306 286 285 275 264 262 261 260 260 262 262 261 260 256 253 247 241 237 233 233 233 231 230 229 226 220 217 212 202 195 195 198 203 203 201 201 206 217 219 214 212 208 206 208 205 207 214 206 201 204 197 184 172 167 166 160 156 155 152 151 151 149 147 138 132 133 131 125 119 116 117 111 111 118 120 116 123 228
240 238 152 148 148 169 182 146 162 233 273 308 65 116 269 286 257 248 299 301 290 290 276 269 270 271 270 268 267 266 263 259 254 249 243 237 234 233 234 234 232 229 227 223 219 215 212 201 192 192 197 202 198 196 200 206 216 215 203 200 207 211 217 219 215 206 199 200 194 180 171 167 164 163 160 158 157 157 158 155 150 146 140 136 135 134 128 120 119 120 115 124 136 140 127 120 194
246 198 123 134 146 151 135 113 129 327 341 315 280 134 209 275 269 303 341 288 269 269 261 267 291 291 280 272 267 264 260 256 252 248 244 240 236 235 235 233 231 228 224 222 219 215 209 199 193 193 195 200 200 200 206 208 210 208 200 202 210 206 203 207 206 198 194 191 182 172 169 167 164 163 162 162 162 162 161 156 152 149 146 142 139 138 133 126 128 129 125 132 135 124 112 109 167
173 142 98 86 83 80 87 95 104 55 330 255 201 170 199 271 263 212 31 220 239 255 258 274 298 292 272 260 259 257 254 252 248 246 243 240 238 235 233 231 227 225 221 220 218 211 204 198 195 195 195 200 204 206 209 208 201 199 203 211 212 202 196 198 200 197 191 184 176 171 169 167 165 165 165 166 166 165 163 160 156 156 154 148 144 145 143 137 136 134 129 128 116 87 77 63 16
138 121 77 63 41 39 57 43 76 70 289 256 207 195 183 277 270 197 197 216 216 239 267 288 299 291 236 223 254 261 260 253 245 242 236 231 231 230 229 227 224 222 218 215 215 208 201 198 195 195 197 201 205 208 209 205 198 200 208 211 204 199 200 205 207 202 191 182 177 173 170 169 168 168 169 170 170 168 166 164 162 161 160 154 152 154 150 143 139 136 137 137 143 196 293 312 303
121 93 89 82 359 11 30 355 44 119 252 261 252 248 169 241 255 237 248 259 229 219 246 272 285 269 187 193 291 292 278 256 239 236 230 222 221 221 223 224 222 219 216 214 213 207 201 198 196 195 196 199 202 204 203 201 202 205 206 199 196 202 214 219 217 209 193 182 179 176 173 172 172 173 174 174 173 171 169 168 166 165 165 161 160 158 152 148 149 154 165 176 191 216 244 276 281
81 95 112 100 338 349 341 305 69 220 246 260 273 274 233 243 254 259 263 266 245 224 228 241 255 252 236 251 276 279 268 254 241 234 229 223 220 220 220 221 219 217 217 215 212 208 202 199 197 197 199 198 200 201 200 202 205 202 195 191 195 208 224 224 219 212 196 185 182 179 176 176 176 176 177 177 175 173 172 172 170 170 170 166 163 160 158 160 165 173 181 192 202 216 228 245 264
155 146 138 137 138 159 263 267 270 266 261 276 285 219 247 270 270 242 242 248 246 241 244 249 256 259 261 266 269 263 251 251 250 241 235 230 225 224 223 222 220 217 217 216 213 209 205 200 198 200 202 200 202 205 203 202 200 193 188 192 201 215 225 219 214 213 200 189 186 184 181 180 180 180 179 179 178 175 174 174 174 175 174 170 166 165 166 171 179 187 193 202 210 215 222 232 248
184 161 136 157 163 168 213 219 220 255 283 294 286 214 204 226 266 240 239 256 258 253 254 258 261 262 263 266 264 256 250 252 255 251 246 239 230 226 226 226 222 219 217 216 214 212 208 203 200 199 202 202 204 208 206 201 199 194 192 197 207 220 225 214 210 212 204 195 191 188 187 186 184 184 182 181 180 178 178 178 178 179 178 174 171 170 173 180 192 202 203 209 216 217 222 227 233
212 124 116 191 191 154 159 194 180 183 322 303 245 227 218 217 270 268 256 269 270 258 257 257 257 258 258 260 261 259 258 257 257 258 253 243 234 228 227 228 224 220 218 217 216 215 212 207 201 198 202 206 208 210 208 203 201 197 196 201 212 221 219 211 209 209 205 200 195 193 192 190 188 188 186 184 182 182 182 182 182 181 179 177 175 173 178 190 202 208 207 211 218 221 225 231 237
165 134 183 219 172 120 115 232 68 73 268 273 226 252 287 311 280 267 245 251 263 267 267 256 252 254 255 256 258 260 262 263 264 264 259 248 239 232 228 227 225 222 220 218 218 220 217 212 204 199 202 208 211 212 209 203 200 198 197 204 217 222 215 209 209 209 205 201 198 197 196 194 192 191 190 187 187 188 187 186 186 184 181 179 178 178 184 196 205 207 208 214 223 229 234 240 244
125 182 207 185 108 94 108 205 354 40 249 272 291 259 285 295 273 296 106 232 250 258 260 256 255 254 251 253 256 259 262 265 267 264 259 251 242 235 230 226 226 225 223 222 222 222 220 215 208 203 204 208 212 213 208 203 199 200 205 212 221 222 211 208 210 209 207 204 201 199 198 197 195 194 194 192 192 193 191 189 188 186 184 181 180 183 189 197 203 206 211 217 225 233 239 244 245
123 181 180 130 141 187 120 150 203 183 245 278 298 281 264 224 227 268 161 215 233 241 242 248 254 248 246 250 253 257 260 262 264 263 259 253 243 235 230 226 226 225 224 224 223 223 220 215 209 205 205 209 212 212 208 204 201 202 211 219 223 221 212 208 209 208 208 206 203 201 199 199 198 197 197 198 198 198 196 193 190 187 186 185 185 188 193 198 203 209 216 222 228 232 239 243 242
56 91 139 108 131 171 163 149 170 178 215 269 310 311 263 225 195 186 208 213 214 225 230 235 240 239 244 249 250 256 264 265 265 264 261 256 248 239 232 228 227 226 225 224 224 224 220 214 209 205 204 206 210 210 206 205 205 207 214 220 222 221 214 208 208 208 208 207 205 204 202 201 201 201 200 201 202 201 200 197 193 190 190 190 190 192 195 200 203 210 217 223 229 234 239 243 244
145 160 173 187 134 124 170 127 118 138 155 207 279 285 266 243 175 182 206 211 206 212 214 219 233 233 234 243 252 259 265 266 264 261 260 259 252 243 234 228 227 226 226 225 225 225 221 215 210 206 205 207 209 209 205 205 207 211 215 220 223 222 215 209 209 209 209 207 206 206 205 204 204 204 204 204 204 203 202 200 197 194 192 192 194 195 198 201 203 210 218 222 230 237 243 246 248
174 192 190 184 162 123 140 226 236 139 159 189 177 266 272 253 174 193 204 205 206 210 214 218 233 237 230 229 243 254 251 248 254 257 258 257 252 244 235 229 225 225 225 226 226 225 222 217 211 207 208 210 211 212 210 209 210 212 215 220 223 223 216 209 208 209 209 208 207 207 207 207 207 207 207 207 207 205 203 201 199 197 194 194 196 197 201 204 204 210 218 225 234 240 245 249 250